Weather Roundup
Issued by NWS

Home | Current Version | Previous Version | Graphics & Text | Print | Product List | Glossary Off
Versions: 1 2 3 4 5 6 7 8 9 10 11 12 13 14 15 16 17 18 19 20 21 22 23 24 25 26 27 28 29 30 31 32 33 34 35 36 37 38 39 40 41 42 43 44 45 46 47 48 49 50

000
NZUS93 KARX 200310
HRRWXR

CURRENT HOURLY OBSERVATIONS ACROSS
MUCH OF THE UPPER MISSISSIPPI VALLEY
NATIONAL WEATHER SERVICE LA CROSSE WI
1000 PM CDT SAT AUG 19 2017


...SOUTHEAST MINNESOTA...


CITY           SKY/WX    TMP DP  RH WIND       PRES   REMARKS
ROCHESTER      CLEAR     63  62  97 SE6       29.95R
ROCHESTER/MAYO FAIR      69  63  80 SE7       29.94S
WINONA         CLEAR     66  63  88 CALM      29.94R
AUSTIN         CLEAR     66  63  88 S5        29.94R
ALBERT LEA     CLEAR     70  64  83 S6        29.93R
DODGE CENTER   CLEAR     63  61  94 S5        29.94S
PRESTON        CLEAR     66  60  81 S3        29.96R
OWATONNA       CLEAR     66  63  88 SE5       29.92S
FARIBAULT      CLEAR     66  63  88 SE3       29.91S
$$

...ELSEWHERE IN MINNESOTA...


CITY           SKY/WX    TMP DP  RH WIND       PRES   REMARKS
MINNEAPOLIS    PTCLDY    71  63  75 SE7       29.89R
INTNL FALLS    CLEAR     66  58  75 S3        29.81R
DULUTH         PTCLDY    66  62  87 SW7       29.89R
RED WING       CLEAR     64  61  88 CALM      29.90S
REDWOOD FALLS  CLEAR     68  64  87 SE7       29.86R
MANKATO        CLEAR     67  64  90 SE7       29.90R
WORTHINGTON    CLEAR     69  64  84 S8        29.91R
FAIRMONT       MOCLDY    70  66  87 S8        29.91R
$$

...SOUTHWEST WISCONSIN...


CITY           SKY/WX    TMP DP  RH WIND       PRES   REMARKS
LA CROSSE      CLEAR     69  62  78 SE5       29.93R
PRAIRIE DU CHI CLEAR     65  60  84 SE3       29.96R
BOSCOBEL       CLEAR     65  63  93 CALM      29.96R
LONE ROCK      CLEAR     63  62  97 E3        29.96R
PLATTEVILLE    CLEAR     67  64  89 SE5       29.98R
FORT MC COY    CLEAR     61  59  95 CALM      29.96R
CAMP DOUGLAS   CLEAR     57  57 100 CALM      29.95R FOG
MAUSTON-NEW LI CLEAR     62  60  96 CALM      29.95S
VIROQUA        FAIR      68  59  74 CALM      29.97S
WIS DELLS      CLEAR     64  60  86 S3        29.97R
$$

...ELSEWHERE IN WISCONSIN...


CITY           SKY/WX    TMP DP  RH WIND       PRES   REMARKS
MILWAUKEE      CLEAR     72  62  71 SW5       29.97R
MADISON        CLEAR     65  62  90 CALM      29.96R
GREEN BAY      CLEAR     64  63  96 SW3       29.93R
EAU CLAIRE     PTCLDY    66  63  90 CALM      29.92R
BLACK RVR FLS  FOG       58  58 100 CALM      29.94R VSB 1/2
MEDFORD        CLEAR     60  57  90 S3        29.96R
WAUSAU         CLEAR     64  60  87 CALM      29.94R
WIS RAPIDS     CLEAR     61  59  93 CALM      29.97R
MARSHFIELD     CLEAR     64  59  83 SW3       29.95R
RICE LAKE      CLEAR     63  60  90 CALM      29.94R
$$

...NORTHEAST IOWA...


CITY           SKY/WX    TMP DP  RH WIND       PRES   REMARKS
WATERLOO       CLEAR     65  61  87 CALM      29.93R
DUBUQUE        CLEAR     66  60  81 S3        29.98R
DECORAH        MOCLDY    68  61  77 CALM      29.95R
MASON CITY     CLEAR     64  61  90 S6        29.95R
CHARLES CITY   CLEAR     66  66 100 SE5       29.95R
OELWEIN        CLEAR     64  64 100 SE6       29.96S
$$

...ELSEWHERE IN IOWA...


CITY           SKY/WX    TMP DP  RH WIND       PRES   REMARKS
DES MOINES     PTCLDY    79  59  50 E7G24     29.92R
IOWA CITY      CLEAR     72  64  76 SE3       29.96R
FORT DODGE     PTCLDY    72  63  73 CALM      29.93R
MARSHALLTOWN   PTCLDY    68  65  90 E7        29.93R
CEDAR RAPIDS   CLEAR     67  64  90 SE3       29.94R
$$

...NORTHERN ILLINOIS...


CITY           SKY/WX    TMP DP  RH WIND       PRES   REMARKS
CHICAGO-OHARE  CLEAR     71  54  54 SE7       29.97R
CHICAGO-MIDWAY CLEAR     75  56  51 SE6       29.97R
MOLINE         CLEAR     68  62  81 E3        29.95R
ROCKFORD       CLEAR     68  63  84 CALM      29.99R
PEORIA         CLEAR     71  64  78 E3        29.96R
$$

NOTE: "FAIR" INDICATES FEW OR NO CLOUDS BELOW 12,000 FEET WITH NO
SIGNIFICANT WEATHER AND/OR OBSTRUCTIONS TO VISIBILITY. WIND
SPEEDS ARE IN MILES-PER-HOUR.




USA.gov is the U.S. government's official web portal to all federal, state and local government web resources and services.